Location: Unspecified
(0.0000°N, 0.0000°E)
Time: 23:52:24
(UTC+01:00)

USA 116 - Visible Passes

Search period start: 31 October 2014 00:00
Search period end: 10 November 2014 00:00
Orbit: 405 x 834 km, 97.9° (Epoch: 18 November)

Date Brightness Start Highest point End Pass type
(mag) Time Alt. Az. Time Alt. Az. Time Alt. Az.
31 Oct 4.0 05:09:19 10° SSE 05:12:51 62° ENE 05:15:10 23° N visible
01 Nov 3.5 05:23:52 10° S 05:27:28 73° W 05:30:12 20° NNW visible
02 Nov 4.1 05:38:39 10° S 05:42:07 41° W 05:45:13 15° NW visible
03 Nov 6.9 04:20:45 10° E 04:21:15 10° ENE 04:21:46 10° ENE visible
03 Nov 4.8 05:53:41 10° SSW 05:56:47 25° W 06:00:12 10° NW visible
04 Nov 6.4 04:33:09 10° ESE 04:35:47 17° ENE 04:38:16 11° NE visible
04 Nov 5.4 06:09:09 10° SW 06:11:29 16° W 06:13:58 10° WNW visible
05 Nov 5.7 04:46:56 10° SE 04:50:20 28° ENE 04:53:17 14° NNE visible
06 Nov 4.7 05:01:07 10° SSE 05:04:54 48° ENE 05:08:18 15° N visible
07 Nov 3.9 05:15:32 10° SSE 05:19:30 82° ENE 05:23:18 14° N visible
08 Nov 3.9 05:30:11 10° S 05:34:08 60° W 05:38:17 12° NNW visible
09 Nov 4.5 05:45:02 10° SSW 05:48:48 36° W 05:53:01 10° NNW visible
